,,PA_Meas_PMT16A,,PR_Meas_QMR101_102,,RH_Meas_QMH101,,SR_Meas_QMS101,,TA_Meas_QMH101,,GenWind,,GenWind,
time,status,PA,status,PR,status,RH,status,SR,status,TA,status,DirAvg,status,SpdAvg,
2011-02-26, 00:00:05,VALID,916.402,VALID,0,VALID,88.9195,VALID,0,VALID,18.494,VALID,32,VALID,0,
2011-02-26, 00:01:05,VALID,916.431,VALID,0,VALID,88.8204,VALID,0,VALID,18.4745,VALID,32,VALID,0.0179687,
2011-02-26, 00:02:05,VALID,916.475,VALID,0,VALID,88.8052,VALID,0,VALID,18.4564,VALID,32,VALID,0.390234,
2011-02-26, 00:03:05,VALID,916.461,VALID,0,VALID,89.0034,VALID,0,VALID,18.4174,VALID,32,VALID,0.614453,
2011-02-26, 00:04:05,VALID,916.452,VALID,0,VALID,88.7518,VALID,0,VALID,18.3199,VALID,32,VALID,0.583984,
2011-02-26, 00:05:05,VALID,916.457,VALID,0,VALID,90.063,VALID,0,VALID,18.2225,VALID,32,VALID,0.563672,
2011-02-26, 00:06:05,VALID,916.463,VALID,0,VALID,91.3743,VALID,0,VALID,18.203,VALID,32,VALID,0.560156,
2011-02-26, 00:07:05,VALID,916.469,VALID,0,VALID,91.2066,VALID,0,VALID,18.2809,VALID,32,VALID,0.439063,
2011-02-26, 00:08:04,VALID,916.456,VALID,0,VALID,90.0325,VALID,0,VALID,18.3199,VALID,32,VALID,0.245703,
2011-02-26, 00:09:04,VALID,916.467,VALID,0,VALID,90.3832,VALID,0,VALID,18.3589,VALID,32,VALID,0.413281,
2011-02-26, 00:10:04,VALID,916.487,VALID,0,VALID,90.8254,VALID,0,VALID,18.3979,VALID,32,VALID,0.318359,
2011-02-26, 00:11:04,VALID,916.458,VALID,0,VALID,91.3514,VALID,0,VALID,18.4369,VALID,32,VALID,0.154297,
2011-02-26, 00:12:04,VALID,916.44,VALID,0,VALID,90.3375,VALID,0,VALID,18.4564,VALID,32,VALID,0,
2011-02-26, 00:13:04,VALID,916.429,VALID,0,VALID,89.2016,VALID,0,VALID,18.4564,VALID,32,VALID,0,
2011-02-26, 00:14:04,VALID,916.425,VALID,0,VALID,88.7899,VALID,0,VALID,18.4954,VALID,32,VALID,0,
2011-02-26, 00:15:04,VALID,916.437,VALID,0,VALID,89.415,VALID,0,VALID,18.5149,VALID,32,VALID,0,
2011-02-26, 00:16:04,VALID,916.439,VALID,0,VALID,89.842,VALID,0,VALID,18.5344,VALID,32,VALID,0,
2011-02-26, 00:17:04,VALID,916.456,VALID,0,VALID,89.476,VALID,0,VALID,18.5525,VALID,32,VALID,0,
2011-02-26, 00:18:04,VALID,916.476,VALID,0,VALID,88.7671,VALID,0,VALID,18.533,VALID,32,VALID,0,
2011-02-26, 00:19:04,VALID,916.497,VALID,0,VALID,89.2245,VALID,0,VALID,18.5316,VALID,32,VALID,0,
2011-02-26, 00:20:04,VALID,916.471,VALID,0,VALID,89.194,VALID,0,VALID,18.572,VALID,32,VALID,0.262891,
2011-02-26, 00:21:04,VALID,916.484,VALID,0,VALID,89.2245,VALID,0,VALID,18.5525,VALID,32,VALID,0.340625,
2011-02-26, 00:22:04,VALID,916.473,VALID,0,VALID,88.7289,VALID,0.107441,VALID,18.533,VALID,32,VALID,0.401172,
2011-02-26, 00:23:04,VALID,916.473,VALID,0,VALID,89.1635,VALID,0,VALID,18.4355,VALID,32,VALID,0.339453,
2011-02-26, 00:24:04,VALID,916.506,VALID,0,VALID,89.4379,VALID,0,VALID,18.3185,VALID,32,VALID,0.309766,
2011-02-26, 00:25:04,VALID,916.462,VALID,0,VALID,90.3222,VALID,0,VALID,18.2016,VALID,32,VALID,0.25,
2011-02-26, 00:26:04,VALID,916.458,VALID,0,VALID,91.077,VALID,0,VALID,18.1626,VALID,32,VALID,0.347266,
2011-02-26, 00:27:04,VALID,916.426,VALID,0,VALID,91.077,VALID,0,VALID,18.1821,VALID,32,VALID,0.0585938,
2011-02-26, 00:28:04,VALID,916.405,VALID,0,VALID,90.8559,VALID,0,VALID,18.2016,VALID,32,VALID,0,
2011-02-26, 00:29:04,VALID,916.427,VALID,0,VALID,90.6272,VALID,0,VALID,18.2406,VALID,32,VALID,0.0246094,
2011-02-26, 00:30:04,VALID,916.413,VALID,0,VALID,89.7962,VALID,0,VALID,18.2796,VALID,32,VALID,0.327734,
2011-02-26, 00:31:04,VALID,916.423,VALID,0,VALID,89.9944,VALID,0,VALID,18.2782,VALID,32,VALID,0.104687,
2011-02-26, 00:32:04,VALID,916.423,VALID,0,VALID,91.8393,VALID,0,VALID,18.4188,VALID,32,VALID,0.766406,
2011-02-26, 00:33:04,VALID,916.433,VALID,0,VALID,91.542,VALID,0,VALID,18.4355,VALID,32,VALID,0.28125,
2011-02-26, 00:34:04,VALID,916.403,VALID,0,VALID,91.3057,VALID,0,VALID,18.5149,VALID,32,VALID,0,
2011-02-26, 00:35:04,VALID,916.346,VALID,0,VALID,91.0998,VALID,0,VALID,18.5734,VALID,32,VALID,0,
2011-02-26, 00:36:04,VALID,916.337,VALID,0,VALID,90.0021,VALID,0,VALID,18.6124,VALID,32,VALID,0,
2011-02-26, 00:37:04,VALID,916.319,VALID,0,VALID,89.9182,VALID,0,VALID,18.6513,VALID,32,VALID,0,
2011-02-26, 00:38:04,VALID,916.271,VALID,0,VALID,88.0352,VALID,0,VALID,18.6319,VALID,32,VALID,0,
2011-02-26, 00:39:04,VALID,916.214,VALID,0,VALID,89.2473,VALID,0,VALID,18.6124,VALID,32,VALID,0,
2011-02-26, 00:40:04,VALID,916.198,VALID,0,VALID,89.5828,VALID,0,VALID,18.5734,VALID,32,VALID,0,
2011-02-26, 00:41:04,VALID,916.126,VALID,0,VALID,89.6133,VALID,0,VALID,18.4954,VALID,32,VALID,0,
2011-02-26, 00:42:04,VALID,916.079,VALID,0,VALID,90.1926,VALID,0,VALID,18.4564,VALID,32,VALID,0,
2011-02-26, 00:43:04,VALID,916.019,VALID,0,VALID,89.7429,VALID,0,VALID,18.4369,VALID,32,VALID,0,
2011-02-26, 00:44:04,VALID,916.012,VALID,0,VALID,89.7124,VALID,0,VALID,18.4383,VALID,32,VALID,0.329297,
2011-02-26, 00:45:04,VALID,916.017,VALID,0,VALID,89.8267,VALID,0,VALID,18.4564,VALID,32,VALID,0.107422,
2011-02-26, 00:46:04,VALID,916.027,VALID,0,VALID,88.1953,VALID,0,VALID,18.4759,VALID,32,VALID,0,
2011-02-26, 00:47:04,VALID,916.024,VALID,0,VALID,87.715,VALID,0,VALID,18.4745,VALID,32,VALID,0,
2011-02-26, 00:48:04,VALID,916.028,VALID,0,VALID,87.6159,VALID,0,VALID,18.455,VALID,32,VALID,0,
2011-02-26, 00:49:04,VALID,916.042,VALID,0,VALID,88.6375,VALID,0,VALID,18.416,VALID,32,VALID,0.0871094,
2011-02-26, 00:50:04,VALID,916.011,VALID,0,VALID,89.8496,VALID,0,VALID,18.299,VALID,32,VALID,0.407031,
2011-02-26, 00:51:04,VALID,916.006,VALID,0,VALID,90.6348,VALID,0,VALID,18.2615,VALID,32,VALID,0.278906,
2011-02-26, 00:52:04,VALID,915.999,VALID,0,VALID,90.7491,VALID,0,VALID,18.2016,VALID,32,VALID,0,
2011-02-26, 00:53:04,VALID,915.986,VALID,0,VALID,90.7187,VALID,0,VALID,18.1835,VALID,32,VALID,0,
2011-02-26, 00:54:04,VALID,915.947,VALID,0,VALID,90.6958,VALID,0,VALID,18.1821,VALID,32,VALID,0,
2011-02-26, 00:55:04,VALID,915.95,VALID,0,VALID,90.1774,VALID,0,VALID,18.2225,VALID,32,VALID,0.231641,
2011-02-26, 00:56:04,VALID,915.928,VALID,0,VALID,89.7505,VALID,0,VALID,18.2016,VALID,32,VALID,0.273438,
2011-02-26, 00:57:04,VALID,915.938,VALID,0,VALID,89.6742,VALID,0,VALID,18.242,VALID,32,VALID,0.380078,
2011-02-26, 00:58:04,VALID,915.949,VALID,0,VALID,89.3236,VALID,0,VALID,18.2016,VALID,32,VALID,0.0121094,
2011-02-26, 00:59:04,VALID,915.929,VALID,0,VALID,89.2321,VALID,0,VALID,18.242,VALID,32,VALID,0.334375,
2011-02-26, 01:00:04,VALID,915.903,VALID,0,VALID,88.7747,VALID,0,VALID,18.2211,VALID,32,VALID,0.374609,
2011-02-26, 01:01:04,VALID,915.903,VALID,0,VALID,88.1953,VALID,0,VALID,18.2796,VALID,32,VALID,0.318359,
2011-02-26, 01:02:04,VALID,915.911,VALID,0,VALID,87.8675,VALID,0,VALID,18.2796,VALID,32,VALID,0.209766,
2011-02-26, 01:03:04,VALID,915.893,VALID,0,VALID,87.8904,VALID,0.107441,VALID,18.3575,VALID,32,VALID,0.250781,
2011-02-26, 01:04:04,VALID,915.912,VALID,0,VALID,87.6083,VALID,0,VALID,18.3575,VALID,32,VALID,0.227734,
2011-02-26, 01:05:04,VALID,915.881,VALID,0,VALID,87.2881,VALID,0,VALID,18.3979,VALID,32,VALID,0.378125,
2011-02-26, 01:06:04,VALID,915.879,VALID,0,VALID,87.2957,VALID,0,VALID,18.3965,VALID,32,VALID,0.390234,
2011-02-26, 01:07:04,VALID,915.91,VALID,0,VALID,87.0747,VALID,0,VALID,18.455,VALID,32,VALID,0.427344,
2011-02-26, 01:08:04,VALID,915.9,VALID,0,VALID,86.9984,VALID,0,VALID,18.4745,VALID,32,VALID,0.348047,
2011-02-26, 01:09:04,VALID,915.906,VALID,0,VALID,86.9374,VALID,0,VALID,18.494,VALID,32,VALID,0.376172,
2011-02-26, 01:10:04,VALID,915.922,VALID,0,VALID,86.8536,VALID,0,VALID,18.494,VALID,32,VALID,0.438672,
2011-02-26, 01:11:04,VALID,915.902,VALID,0,VALID,86.8688,VALID,0,VALID,18.5135,VALID,32,VALID,0.275781,
2011-02-26, 01:12:04,VALID,915.828,VALID,0,VALID,86.8078,VALID,0,VALID,18.5135,VALID,32,VALID,0.0667969,
2011-02-26, 01:13:04,VALID,915.83,VALID,0,VALID,86.6706,VALID,0,VALID,18.5734,VALID,32,VALID,0.364453,
2011-02-26, 01:14:04,VALID,915.805,VALID,0,VALID,86.5486,VALID,0,VALID,18.5525,VALID,32,VALID,0.326172,
2011-02-26, 01:15:04,VALID,915.719,VALID,0,VALID,86.4877,VALID,0,VALID,18.5525,VALID,32,VALID,0.250781,
2011-02-26, 01:16:04,VALID,915.701,VALID,0,VALID,86.6401,VALID,0,VALID,18.5135,VALID,32,VALID,0.669141,
2011-02-26, 01:17:04,VALID,915.679,VALID,0,VALID,87.2347,VALID,0,VALID,18.416,VALID,32,VALID,0.575781,
2011-02-26, 01:18:04,VALID,915.66,VALID,0,VALID,87.3872,VALID,0,VALID,18.338,VALID,32,VALID,0.634375,
2011-02-26, 01:19:04,VALID,915.62,VALID,0,VALID,87.8446,VALID,0.107441,VALID,18.2601,VALID,32,VALID,0.602734,
2011-02-26, 01:20:04,VALID,915.638,VALID,0,VALID,88.5765,VALID,0,VALID,18.1431,VALID,32,VALID,0.832812,
2011-02-26, 01:21:04,VALID,915.634,VALID,0,VALID,89.5218,VALID,0,VALID,18.0651,VALID,32,VALID,0.835547,
2011-02-26, 01:22:04,VALID,915.655,VALID,0,VALID,91.0465,VALID,0,VALID,18.047,VALID,32,VALID,0.922266,
2011-02-26, 01:23:04,VALID,915.66,VALID,0,VALID,92.594,VALID,0,VALID,18.0067,VALID,32,VALID,1.21641,
2011-02-26, 01:24:04,VALID,915.693,VALID,0,VALID,93.1658,VALID,0,VALID,18.0067,VALID,32,VALID,0.832422,
2011-02-26, 01:25:04,VALID,915.7,VALID,0,VALID,93.1276,VALID,0,VALID,17.9677,VALID,32,VALID,0.644531,
2011-02-26, 01:26:04,VALID,915.66,VALID,0,VALID,92.3119,VALID,0,VALID,17.9106,VALID,32,VALID,0.807813,
2011-02-26, 01:27:04,VALID,915.651,VALID,0,VALID,92.0985,VALID,0,VALID,17.8494,VALID,32,VALID,0.585156,
2011-02-26, 01:28:04,VALID,915.632,VALID,0,VALID,92.3729,VALID,0,VALID,17.8313,VALID,32,VALID,0.612891,
2011-02-26, 01:29:04,VALID,915.639,VALID,0,VALID,92.6169,VALID,0,VALID,17.8313,VALID,32,VALID,0.470313,
2011-02-26, 01:30:04,VALID,915.666,VALID,0,VALID,92.4415,VALID,0,VALID,17.8313,VALID,32,VALID,0.403516,
2011-02-26, 01:31:04,VALID,915.705,VALID,0,VALID,92.4034,VALID,0,VALID,17.8313,VALID,32,VALID,0.499219,
2011-02-26, 01:32:04,VALID,915.728,VALID,0,VALID,92.0909,VALID,0,VALID,17.7923,VALID,32,VALID,0.334375,
2011-02-26, 01:33:04,VALID,915.744,VALID,0,VALID,91.0922,VALID,0,VALID,17.7338,VALID,32,VALID,0.540625,
2011-02-26, 01:34:04,VALID,915.744,VALID,0,VALID,92.9523,VALID,0,VALID,17.7338,VALID,32,VALID,0.9625,
2011-02-26, 01:35:04,VALID,915.75,VALID,0,VALID,92.7389,VALID,0,VALID,17.6948,VALID,32,VALID,0.789063,
2011-02-26, 01:36:04,VALID,915.718,VALID,0,VALID,93.1734,VALID,0,VALID,17.7157,VALID,32,VALID,1.0082,
2011-02-26, 01:37:04,VALID,915.725,VALID,0,VALID,93.059,VALID,0,VALID,17.5779,VALID,32,VALID,0.664844,
2011-02-26, 01:38:04,VALID,915.656,VALID,0,VALID,93.4021,VALID,0.107441,VALID,17.5,VALID,32,VALID,0.836328,
2011-02-26, 01:39:04,VALID,915.638,VALID,0,VALID,94.4846,VALID,0,VALID,17.5584,VALID,32,VALID,0.741016,
2011-02-26, 01:40:04,VALID,915.612,VALID,0,VALID,94.9115,VALID,0.107441,VALID,17.5779,VALID,32,VALID,0.580469,
2011-02-26, 01:41:04,VALID,915.531,VALID,0,VALID,95.1631,VALID,0,VALID,17.6169,VALID,32,VALID,0.763281,
2011-02-26, 01:42:04,VALID,915.509,VALID,0,VALID,95.2546,VALID,0,VALID,17.6754,VALID,32,VALID,0.844141,
2011-02-26, 01:43:04,VALID,915.4,VALID,0,VALID,95.3308,VALID,0,VALID,17.7923,VALID,32,VALID,1.13398,
2011-02-26, 01:44:04,VALID,915.333,VALID,0,VALID,95.2393,VALID,0.107441,VALID,17.8702,VALID,32,VALID,1.03789,
2011-02-26, 01:45:04,VALID,915.277,VALID,0,VALID,94.8658,VALID,0,VALID,17.8702,VALID,32,VALID,1.32031,
2011-02-26, 01:46:04,VALID,915.251,VALID,0,VALID,94.3855,VALID,0,VALID,17.8508,VALID,32,VALID,0.925781,
2011-02-26, 01:47:04,VALID,915.203,VALID,0,VALID,94.2788,VALID,0,VALID,17.8104,VALID,32,VALID,1.36875,
2011-02-26, 01:48:04,VALID,915.133,VALID,0,VALID,94.4008,VALID,0,VALID,17.8313,VALID,32,VALID,1.34492,
2011-02-26, 01:49:04,VALID,915.152,VALID,0,VALID,94.4922,VALID,0,VALID,17.8118,VALID,32,VALID,1.12422,
2011-02-26, 01:50:04,VALID,915.132,VALID,0,VALID,94.5456,VALID,0,VALID,17.8118,VALID,32,VALID,0.879297,
2011-02-26, 01:51:04,VALID,915.103,VALID,0,VALID,94.6066,VALID,0,VALID,17.8313,VALID,32,VALID,0.735156,
2011-02-26, 01:52:04,VALID,915.121,VALID,0,VALID,94.355,VALID,0,VALID,17.8118,VALID,32,VALID,0.464844,
2011-02-26, 01:53:04,VALID,915.13,VALID,0,VALID,93.5774,VALID,0,VALID,17.7338,VALID,32,VALID,0.214062,
2011-02-26, 01:54:04,VALID,915.166,VALID,0,VALID,93.89,VALID,0,VALID,17.7143,VALID,32,VALID,0.358594,
2011-02-26, 01:55:04,VALID,915.181,VALID,0,VALID,94.2635,VALID,0,VALID,17.7157,VALID,32,VALID,0.370703,
2011-02-26, 01:56:04,VALID,915.162,VALID,0,VALID,94.5913,VALID,0,VALID,17.6948,VALID,32,VALID,0.478516,
2011-02-26, 01:57:04,VALID,915.159,VALID,0,VALID,94.4999,VALID,0,VALID,17.6364,VALID,32,VALID,0.296094,
2011-02-26, 01:58:04,VALID,915.195,VALID,0,VALID,94.6295,VALID,0,VALID,17.6364,VALID,32,VALID,0.167187,
2011-02-26, 01:59:04,VALID,915.178,VALID,0,VALID,94.66,VALID,0,VALID,17.6377,VALID,32,VALID,0.0609375,
2011-02-26, 02:00:04,VALID,915.166,VALID,0,VALID,94.3398,VALID,0,VALID,17.5779,VALID,32,VALID,0.259375,
2011-02-26, 02:01:04,VALID,915.137,VALID,0,VALID,94.4694,VALID,0,VALID,17.5974,VALID,32,VALID,0.388672,
2011-02-26, 02:02:04,VALID,915.145,VALID,0,VALID,94.5913,VALID,0,VALID,17.5974,VALID,32,VALID,0.374219,
2011-02-26, 02:03:04,VALID,915.142,VALID,0,VALID,94.8277,VALID,0.107441,VALID,17.5584,VALID,32,VALID,0.487109,
2011-02-26, 02:04:04,VALID,915.124,VALID,0,VALID,94.82,VALID,0,VALID,17.5389,VALID,32,VALID,0.535156,
2011-02-26, 02:05:04,VALID,915.128,VALID,0,VALID,94.9268,VALID,0,VALID,17.5389,VALID,32,VALID,0.512891,
2011-02-26, 02:06:04,VALID,915.126,VALID,0,VALID,94.7743,VALID,0,VALID,17.5,VALID,32,VALID,0.389453,
2011-02-26, 02:07:04,VALID,915.101,VALID,0,VALID,94.6218,VALID,0,VALID,17.4805,VALID,32,VALID,0.403906,
2011-02-26, 02:08:04,VALID,915.053,VALID,0,VALID,94.8582,VALID,0,VALID,17.5,VALID,32,VALID,0.251953,
2011-02-26, 02:09:04,VALID,915.027,VALID,0,VALID,94.9192,VALID,0,VALID,17.5389,VALID,32,VALID,0.244922,
2011-02-26, 02:10:04,VALID,914.997,VALID,0,VALID,95.1097,VALID,0,VALID,17.5974,VALID,32,VALID,0.398828,
2011-02-26, 02:11:04,VALID,914.958,VALID,0,VALID,95.1631,VALID,0,VALID,17.6948,VALID,32,VALID,0.525391,
2011-02-26, 02:12:04,VALID,914.907,VALID,0,VALID,94.7591,VALID,0.107441,VALID,17.8313,VALID,32,VALID,0.698047,
2011-02-26, 02:13:04,VALID,914.871,VALID,0,VALID,94.0348,VALID,0,VALID,17.9677,VALID,32,VALID,0.434766,
2011-02-26, 02:14:04,VALID,914.832,VALID,0,VALID,93.0895,VALID,0,VALID,18.1041,VALID,32,VALID,0.629297,
2011-02-26, 02:15:04,VALID,914.822,VALID,0,VALID,92.129,VALID,0,VALID,18.2225,VALID,32,VALID,0.384375,
2011-02-26, 02:16:04,VALID,914.831,VALID,0,VALID,91.3285,VALID,0,VALID,18.2601,VALID,32,VALID,0.171875,
2011-02-26, 02:17:04,VALID,914.871,VALID,0,VALID,90.9473,VALID,0,VALID,18.2796,VALID,32,VALID,0.0957031,
2011-02-26, 02:18:04,VALID,914.914,VALID,0,VALID,90.4061,VALID,0,VALID,18.299,VALID,32,VALID,0.699219,
2011-02-26, 02:19:04,VALID,914.92,VALID,0,VALID,90.0859,VALID,0,VALID,18.338,VALID,32,VALID,0.582031,
2011-02-26, 02:20:04,VALID,914.96,VALID,0,VALID,89.8801,VALID,0,VALID,18.3965,VALID,32,VALID,0.278906,
2011-02-26, 02:21:04,VALID,914.983,VALID,0,VALID,89.7124,VALID,0,VALID,18.4564,VALID,32,VALID,0,
2011-02-26, 02:22:04,VALID,914.984,VALID,0,VALID,88.5079,VALID,0,VALID,18.4355,VALID,32,VALID,0,
2011-02-26, 02:23:04,VALID,915.012,VALID,0,VALID,89.1482,VALID,0,VALID,18.377,VALID,32,VALID,0,
2011-02-26, 02:24:04,VALID,915.04,VALID,0,VALID,89.6666,VALID,0,VALID,18.3575,VALID,32,VALID,0,
2011-02-26, 02:25:04,VALID,915.041,VALID,0,VALID,89.1863,VALID,0,VALID,18.338,VALID,32,VALID,0.308594,
2011-02-26, 02:26:04,VALID,915.05,VALID,0,VALID,90.3375,VALID,0.107441,VALID,18.2002,VALID,32,VALID,0.442969,
2011-02-26, 02:27:04,VALID,915.087,VALID,0,VALID,90.7263,VALID,0.107441,VALID,18.1236,VALID,32,VALID,1.00547,
2011-02-26, 02:28:04,VALID,915.087,VALID,0,VALID,91.5267,VALID,0,VALID,18.0275,VALID,32,VALID,0.463281,
2011-02-26, 02:29:04,VALID,915.092,VALID,0,VALID,91.8622,VALID,0.107441,VALID,17.9274,VALID,32,VALID,0.472656,
2011-02-26, 02:30:04,VALID,915.12,VALID,0,VALID,92.3196,VALID,0,VALID,17.9287,VALID,32,VALID,0,
2011-02-26, 02:31:04,VALID,915.101,VALID,0,VALID,92.655,VALID,0,VALID,17.9287,VALID,32,VALID,0,
2011-02-26, 02:32:04,VALID,915.066,VALID,0,VALID,92.594,VALID,0,VALID,17.9677,VALID,32,VALID,0.396875,
2011-02-26, 02:33:04,VALID,915.041,VALID,0,VALID,92.6169,VALID,0,VALID,18.0067,VALID,32,VALID,0.566016,
2011-02-26, 02:34:04,VALID,915.042,VALID,0,VALID,92.5711,VALID,0,VALID,18.0665,VALID,32,VALID,0.605469,
2011-02-26, 02:35:04,VALID,915.012,VALID,0,VALID,92.6626,VALID,0,VALID,18.1028,VALID,32,VALID,0.505859,
2011-02-26, 02:36:04,VALID,914.99,VALID,0,VALID,92.533,VALID,0,VALID,18.2016,VALID,32,VALID,0.320703,
2011-02-26, 02:37:04,VALID,915.016,VALID,0,VALID,92.1976,VALID,0,VALID,18.2197,VALID,32,VALID,0.0140625,
2011-02-26, 02:38:04,VALID,914.993,VALID,0,VALID,92.0299,VALID,0,VALID,18.2796,VALID,32,VALID,0,
2011-02-26, 02:39:04,VALID,914.98,VALID,0,VALID,91.6335,VALID,0,VALID,18.3394,VALID,32,VALID,0,
2011-02-26, 02:40:04,VALID,914.95,VALID,0,VALID,91.1913,VALID,0.107441,VALID,18.3575,VALID,32,VALID,0,
2011-02-26, 02:41:04,VALID,914.917,VALID,0,VALID,90.7339,VALID,0.107441,VALID,18.338,VALID,32,VALID,0,
2011-02-26, 02:42:04,VALID,914.929,VALID,0,VALID,90.9397,VALID,0,VALID,18.3185,VALID,32,VALID,0,
2011-02-26, 02:43:04,VALID,914.907,VALID,0,VALID,91.2904,VALID,0,VALID,18.338,VALID,32,VALID,0.00351562,
2011-02-26, 02:44:04,VALID,914.916,VALID,0,VALID,91.3133,VALID,0.107441,VALID,18.3965,VALID,32,VALID,0.693359,
2011-02-26, 02:45:04,VALID,914.898,VALID,0,VALID,90.9702,VALID,0,VALID,18.4355,VALID,31,VALID,0.753125,
2011-02-26, 02:46:04,VALID,914.904,VALID,0,VALID,90.6195,VALID,0,VALID,18.4926,VALID,31,VALID,0.251172,
2011-02-26, 02:47:04,VALID,914.887,VALID,0,VALID,90.2384,VALID,0,VALID,18.5525,VALID,31,VALID,0.154687,
2011-02-26, 02:48:04,VALID,914.852,VALID,0,VALID,89.7276,VALID,0,VALID,18.572,VALID,31,VALID,0.232422,
2011-02-26, 02:49:04,VALID,914.856,VALID,0,VALID,89.9563,VALID,0,VALID,18.5344,VALID,31,VALID,0.417969,
2011-02-26, 02:50:04,VALID,914.858,VALID,0,VALID,90.5967,VALID,0,VALID,18.3951,VALID,31,VALID,0.563672,
2011-02-26, 02:51:04,VALID,914.829,VALID,0,VALID,91.1227,VALID,0,VALID,18.338,VALID,31,VALID,0.392969,
2011-02-26, 02:52:04,VALID,914.821,VALID,0,VALID,91.3971,VALID,0,VALID,18.2796,VALID,31,VALID,0.477734,
2011-02-26, 02:53:04,VALID,914.858,VALID,0,VALID,91.9613,VALID,0,VALID,18.3241,VALID,31,VALID,0.586328,
2011-02-26, 02:54:04,VALID,914.802,VALID,0,VALID,92.4263,VALID,0.107441,VALID,18.2406,VALID,31,VALID,0.446484,
2011-02-26, 02:55:04,VALID,914.805,VALID,0,VALID,92.0985,VALID,0,VALID,18.2211,VALID,31,VALID,0.285547,
2011-02-26, 02:56:04,VALID,914.751,VALID,0,VALID,92.2738,VALID,0.107441,VALID,18.2406,VALID,31,VALID,0.483984,
2011-02-26, 02:57:04,VALID,914.695,VALID,0,VALID,92.5406,VALID,0,VALID,18.2406,VALID,31,VALID,0.247266,
2011-02-26, 02:58:04,VALID,914.674,VALID,0,VALID,92.4263,VALID,0,VALID,18.2587,VALID,31,VALID,0.426562,
2011-02-26, 02:59:04,VALID,914.638,VALID,0,VALID,92.2052,VALID,0,VALID,18.2977,VALID,31,VALID,0.289453,
2011-02-26, 03:00:04,VALID,914.626,VALID,0,VALID,92.0299,VALID,0.107441,VALID,18.3575,VALID,31,VALID,0.476172,
2011-02-26, 03:01:04,VALID,914.61,VALID,0,VALID,91.9003,VALID,0.107441,VALID,18.377,VALID,31,VALID,0.346875,
2011-02-26, 03:02:04,VALID,914.661,VALID,0,VALID,91.8393,VALID,0.107441,VALID,18.377,VALID,31,VALID,0.375391,
2011-02-26, 03:03:04,VALID,914.639,VALID,0,VALID,91.7554,VALID,0,VALID,18.416,VALID,31,VALID,0.494531,
2011-02-26, 03:04:04,VALID,914.639,VALID,0,VALID,91.6258,VALID,0,VALID,18.4355,VALID,31,VALID,0.441797,
2011-02-26, 03:05:04,VALID,914.627,VALID,0,VALID,91.5801,VALID,0,VALID,18.455,VALID,31,VALID,0.351953,
2011-02-26, 03:06:04,VALID,914.609,VALID,0,VALID,91.4657,VALID,0,VALID,18.5149,VALID,31,VALID,0.315625,
2011-02-26, 03:07:04,VALID,914.607,VALID,0,VALID,91.3666,VALID,0,VALID,18.5135,VALID,31,VALID,0.198437,
2011-02-26, 03:08:04,VALID,914.6,VALID,0,VALID,91.2523,VALID,0,VALID,18.533,VALID,31,VALID,0,
2011-02-26, 03:09:04,VALID,914.572,VALID,0,VALID,91.1074,VALID,0,VALID,18.572,VALID,31,VALID,0.0746094,
2011-02-26, 03:10:04,VALID,914.539,VALID,0,VALID,91.0388,VALID,0,VALID,18.572,VALID,31,VALID,0.231641,
2011-02-26, 03:11:04,VALID,914.515,VALID,0,VALID,90.9626,VALID,0.107441,VALID,18.5705,VALID,31,VALID,0.177734,
2011-02-26, 03:12:04,VALID,914.47,VALID,0,VALID,91.0083,VALID,0.107441,VALID,18.59,VALID,31,VALID,0.406641,
2011-02-26, 03:13:04,VALID,914.423,VALID,0,VALID,91.0922,VALID,0,VALID,18.59,VALID,31,VALID,0.375391,
2011-02-26, 03:14:04,VALID,914.409,VALID,0,VALID,91.0922,VALID,0,VALID,18.6499,VALID,31,VALID,0.337109,
2011-02-26, 03:15:04,VALID,914.363,VALID,0,VALID,90.9626,VALID,0,VALID,18.7084,VALID,31,VALID,0.300391,
2011-02-26, 03:16:04,VALID,914.35,VALID,0,VALID,90.894,VALID,0,VALID,18.7279,VALID,31,VALID,0.333984,
2011-02-26, 03:17:04,VALID,914.347,VALID,0,VALID,90.9169,VALID,0,VALID,18.7669,VALID,31,VALID,0.397266,
2011-02-26, 03:18:04,VALID,914.314,VALID,0,VALID,90.5357,VALID,0,VALID,18.7864,VALID,31,VALID,0.403125,
2011-02-26, 03:19:04,VALID,914.321,VALID,0,VALID,90.2079,VALID,0,VALID,18.7864,VALID,31,VALID,0.448828,
2011-02-26, 03:20:04,VALID,914.345,VALID,0,VALID,89.4074,VALID,0,VALID,18.6889,VALID,31,VALID,0.473437,
2011-02-26, 03:21:04,VALID,914.359,VALID,0,VALID,90.246,VALID,0,VALID,18.572,VALID,31,VALID,0.807422,
2011-02-26, 03:22:04,VALID,914.349,VALID,0,VALID,91.2294,VALID,0,VALID,18.4355,VALID,31,VALID,0.939453,
2011-02-26, 03:23:04,VALID,914.382,VALID,0,VALID,92.0223,VALID,0,VALID,18.338,VALID,31,VALID,0.860156,
2011-02-26, 03:24:04,VALID,914.406,VALID,0,VALID,92.3272,VALID,0,VALID,18.2601,VALID,31,VALID,0.775391,
2011-02-26, 03:25:04,VALID,914.44,VALID,0,VALID,92.5635,VALID,0,VALID,18.2211,VALID,31,VALID,0.627344,
2011-02-26, 03:26:04,VALID,914.46,VALID,0,VALID,92.8303,VALID,0,VALID,18.2016,VALID,31,VALID,0.798047,
2011-02-26, 03:27:04,VALID,914.487,VALID,0,VALID,92.8837,VALID,0,VALID,18.1821,VALID,31,VALID,0.682422,
2011-02-26, 03:28:04,VALID,914.481,VALID,0,VALID,93.4478,VALID,0.107441,VALID,18.2016,VALID,31,VALID,0.814844,
2011-02-26, 03:29:04,VALID,914.522,VALID,0,VALID,93.3945,VALID,0,VALID,18.2211,VALID,31,VALID,0.596094,
2011-02-26, 03:30:04,VALID,914.53,VALID,0,VALID,93.2344,VALID,0,VALID,18.2406,VALID,30,VALID,0.647656,
2011-02-26, 03:31:04,VALID,914.523,VALID,0,VALID,93.0362,VALID,0,VALID,18.2796,VALID,29,VALID,0.508594,
2011-02-26, 03:32:04,VALID,914.51,VALID,0,VALID,92.9142,VALID,0,VALID,18.338,VALID,29,VALID,0.0726563,
2011-02-26, 03:33:04,VALID,914.483,VALID,0,VALID,92.8456,VALID,0,VALID,18.3951,VALID,29,VALID,0.457031,
2011-02-26, 03:34:04,VALID,914.429,VALID,0,VALID,92.3196,VALID,0,VALID,18.455,VALID,29,VALID,0.629297,
2011-02-26, 03:35:04,VALID,914.437,VALID,0,VALID,91.8012,VALID,0,VALID,18.5135,VALID,29,VALID,0.278516,
2011-02-26, 03:36:04,VALID,914.421,VALID,0,VALID,91.3666,VALID,0,VALID,18.5316,VALID,29,VALID,0.335547,
2011-02-26, 03:37:04,VALID,914.395,VALID,0,VALID,91.2218,VALID,0,VALID,18.5914,VALID,29,VALID,0.55,
2011-02-26, 03:38:04,VALID,914.417,VALID,0,VALID,91.1989,VALID,0,VALID,18.6109,VALID,29,VALID,0.329297,
2011-02-26, 03:39:04,VALID,914.437,VALID,0,VALID,90.8178,VALID,0,VALID,18.6095,VALID,29,VALID,0.416406,
2011-02-26, 03:40:04,VALID,914.416,VALID,0,VALID,90.6882,VALID,0,VALID,18.6304,VALID,29,VALID,0.422656,
2011-02-26, 03:41:04,VALID,914.434,VALID,0,VALID,91.1303,VALID,0,VALID,18.6694,VALID,319,VALID,0.245703,
2011-02-26, 03:42:04,VALID,914.459,VALID,0,VALID,90.8025,VALID,0,VALID,18.7084,VALID,319,VALID,0,
2011-02-26, 03:43:04,VALID,914.469,VALID,0,VALID,90.711,VALID,0,VALID,18.7474,VALID,319,VALID,0.246094,
2011-02-26, 03:44:04,VALID,914.454,VALID,0,VALID,90.5128,VALID,0,VALID,18.7655,VALID,319,VALID,0.1875,
2011-02-26, 03:45:04,VALID,914.425,VALID,0,VALID,90.2994,VALID,0,VALID,18.824,VALID,319,VALID,0.267188,
2011-02-26, 03:46:04,VALID,914.357,VALID,0,VALID,90.1393,VALID,0,VALID,18.9034,VALID,319,VALID,0.193359,
2011-02-26, 03:47:04,VALID,914.36,VALID,0,VALID,89.8953,VALID,0,VALID,18.9424,VALID,319,VALID,0.228906,